North Vernon, Indiana, United States (47265)
Lat: 39.01N, Lon: 85.62W
Wx Zone: INZ072
Local Info
Past Weather Observations for Tuesday, May 26, 2015

NOTE: This archive is for the closest National Weather Service station to North Vernon. Information may differ from the station used for current weather conditions.

Click here for Long-term Archive

Time Weather Temperature Dewpoint Humidity Pressure Winds Precip Visibility
23:53
Overcast
72°F / 22°C 64°F / 18°C 78% 30.09 in
(1019 mb)
S 9.2 mph
(S 15 kph)
- 10SM
22:53
Mostly Cloudy
72°F / 22°C 64°F / 18°C 78% 30.09 in
(1019 mb)
SSE 9.2 mph
(SSE 15 kph)
- 10SM
21:53
Clear
70°F / 21°C 64°F / 18°C 83% 30.06 in
(1018 mb)
S 9.2 mph
(S 15 kph)
- 10SM
20:53
Clear
72°F / 22°C 64°F / 18°C 78% 30.06 in
(1018 mb)
S 11.5 mph
(S 19 kph)
- 10SM
19:53
Clear
73°F / 23°C 63°F / 17°C 69% 30.04 in
(1017 mb)
S 10.4 mph
(S 17 kph)
- 10SM
18:53
Clear
75°F / 24°C 63°F / 17°C 65% 30.06 in
(1018 mb)
S 16.1 mph
(S 26 kph)
- 10SM
18:13
Mostly Cloudy
79°F / 26°C 64°F / 18°C 61% 30.06 in
(1018 mb)
S 18.4 mph
(S 30 kph)
- 10SM
18:02
Mostly Cloudy
79°F / 26°C 63°F / 17°C 58% 30.06 in
(1018 mb)
SSE 21.9 mph
(SSE 35 kph)
- 10SM
17:53
Mostly Cloudy
79°F / 26°C 64°F / 18°C 61% 30.06 in
(1018 mb)
SSE 18.4 mph
(SSE 30 kph)
- 10SM
16:53
Partly Cloudy
79°F / 26°C 64°F / 18°C 61% 30.06 in
(1018 mb)
SW 16.1 mph
(SW 26 kph)
- 10SM
15:53
Mostly Cloudy
81°F / 27°C 63°F / 17°C 54% 30.06 in
(1018 mb)
SW 20.7 mph
(SW 33 kph)
- 10SM
14:53
Mostly Cloudy
82°F / 28°C 64°F / 18°C 55% 30.06 in
(1018 mb)
SSE 20.7 mph
(SSE 33 kph)
- 10SM
13:53
Overcast
79°F / 26°C 64°F / 18°C 61% 30.09 in
(1019 mb)
SSE 23 mph
(SSE 37 kph)
- 10SM
12:53
Mostly Cloudy
77°F / 25°C 64°F / 18°C 65% 30.09 in
(1019 mb)
SSE 21.9 mph
(SSE 35 kph)
0.00 in
(0.00 mm)
10SM
12:14
Overcast
73°F / 23°C 64°F / 18°C 74% 30.09 in
(1019 mb)
SSE 23 mph
(SSE 37 kph)
0.00 in
(0.00 mm)
10SM
11:53
Overcast
73°F / 23°C 64°F / 18°C 74% 30.09 in
(1019 mb)
SSE 21.9 mph
(SSE 35 kph)
- 10SM
10:53
Overcast
72°F / 22°C 64°F / 18°C 78% 30.09 in
(1019 mb)
S 18.4 mph
(S 30 kph)
0.00 in
(0.00 mm)
10SM
09:53
Overcast
72°F / 22°C 64°F / 18°C 78% 30.06 in
(1018 mb)
S 17.3 mph
(S 28 kph)
- 10SM
09:09
Mostly Cloudy
73°F / 23°C 64°F / 18°C 74% 30.06 in
(1018 mb)
S 21.9 mph
(S 35 kph)
- 10SM
08:53
Partly Cloudy
73°F / 23°C 64°F / 18°C 74% 30.06 in
(1018 mb)
S 21.9 mph
(S 35 kph)
- 10SM
08:45
Partly Cloudy
72°F / 22°C 64°F / 18°C 78% 30.06 in
(1018 mb)
S 19.6 mph
(S 32 kph)
- 10SM
08:07
Overcast
72°F / 22°C 64°F / 18°C 78% 30.06 in
(1018 mb)
SSE 21.9 mph
(SSE 35 kph)
- 10SM
07:53
Mostly Cloudy
72°F / 22°C 64°F / 18°C 78% 30.06 in
(1018 mb)
SSE 18.4 mph
(SSE 30 kph)
- 10SM
06:53
Overcast
70°F / 21°C 64°F / 18°C 83% 30.06 in
(1018 mb)
S 9.2 mph
(S 15 kph)
0.01 in
(0.25 mm)
10SM
05:53
Overcast
70°F / 21°C 64°F / 18°C 83% 30.06 in
(1018 mb)
S 13.8 mph
(S 22 kph)
0.04 in
(1.02 mm)
10SM
04:53
Mostly Cloudy
Light Rain
70°F / 21°C 64°F / 18°C 83% 30.06 in
(1018 mb)
SSE 16.1 mph
(SSE 26 kph)
0.01 in
(0.25 mm)
10SM
03:53
Mostly Cloudy
73°F / 23°C 59°F / 15°C 61% 30.04 in
(1017 mb)
S 13.8 mph
(S 22 kph)
- 10SM
02:53
Clear
73°F / 23°C 57°F / 14°C 57% 30.04 in
(1017 mb)
S 12.7 mph
(S 20 kph)
- 10SM
01:53
Clear
75°F / 24°C 57°F / 14°C 54% 30.04 in
(1017 mb)
S 12.7 mph
(S 20 kph)
- 10SM
00:53
Partly Cloudy
73°F / 23°C 57°F / 14°C 57% 30.06 in
(1018 mb)
S 10.4 mph
(S 17 kph)
- 10SM
Time Weather Temperature Dewpoint Humidity Pressure Winds Precip Visibility


Weather for websites

WeatherForYou.com, LLC is not responsible for any damages or problems caused by this service. Current weather conditions are obtained from the closest station including government and personal stations which may have varying degrees of accuracy. Weather forecasts are derived from the NOAA NDFD. Like all things, this site belongs to Jesus Christ... He just trusts us to maintain it. If you have any questions or comments email webmaster@weatherforyou.com

Copyright © 2015, WeatherForYou.com LLC. All rights reserved.